Location: Misciano
(43.5000°N, 11.9500°E)
Time: 21:46:16
(UTC+00:00)

Cosmos 2219 Rocket - Pass Details

Date: 13 August 2020
Orbit: 826 x 848 km, 71.0° (Epoch: 22 September)

Event Time Altitude Azimuth Distance (km) Brightness Sun altitude
Rises 22:09:43 0° 336° (NNW) 3,416 6.5 -30.2°
Reaches altitude 10° 22:12:10 10° 338° (NNW) 2,479 5.5 -30.3°
Enters shadow 22:17:08 66° 5° (N) 926 2.4 -30.6°
